Tracking 28790 objects as of 19-Apr-2024
HD Live streaming from Space Station
objects crossing your sky now

CZ-4 DEB

Track CZ-4 DEB now!
10-day predictions


NORAD ID: 26650
Int'l Code: 1999-057LG
Perigee: 585.7 km
Apogee: 600.2 km
Inclination: 98.5 °
Period: 96.4 minutes
Semi major axis: 6963 km
RCS: 0.0056 m2 (small)
Launch date: October 14, 1999
Source: People's Republic of China (PRC)
Launch site: Taiyaun Space Center, China (TSC)

Note: This is SATELLITE DEBRIS
Your satellite tracking list
Your tracking list is empty




NASA's NSSDC Master Catalog

Two Line Element Set (TLE):
1 26650U 99057LG  24109.03725987  .00027377  00000-0  25694-2 0  9990
2 26650  98.5303  42.3975 0010369 126.5799 292.2374 14.93896465279807
Source of the keplerian elements: AFSPC